www.pogodaiklimat.ru

Погода и климат >> Архив погоды >> Россия >> Забайкальский край >> Агинское


ПОГОДА в Агинском

  • Прогноз погоды в Агинском
  • Монитор погоды в Агинском
  • Климат города

АРХИВ ПОГОДЫ в Агинском

Время (UTC), дата Ветер
(напр.,м/с)
 
Видим.   Явления Облачность Т
(С)
Тd
(С)
f
(%)
Тe
(С)
Тes
(С)
Комфортность P
(гПа)
Po
(гПа)
Тmin
(С)
Tmax
(С)
R
(мм)
R24
(мм)
S
(см)
15 16.06 З 1 50 км 10/3 1000 м
[Sc Ci fib]
+9.8 +6.9 82 +9 +9 1005.7 927.3
18 16.06 ЮЗ 2 50 км 10/3 1000 м
[Sc Ci fib]
+9.0 +6.9 87 +7 +7 1005.7 927.1
21 16.06 З 1 20 км слабый ливневой дождь 10/5 600 м
[Cb cap Ac As]
+9.2 +8.3 94 +8 +8 1005.7 927.1
00 17.06 З 2 20 км слабый ливневой дождь 10/5 600 м
[Cb cap Ac As]
+11.7 +10.1 90 +11 +12 1005.4 927.6 +8.8 3
03 17.06 СЗ 3 50 км в посл. час ливневой дождь 10/8 600 м
[Cb cap Ci fib]
+15.5 +10.7 73 +15 +17 1003.9 927.2
06 17.06 СЗ 4 50 км гроза без осадков {ливн. осадки} 10/8 600 м
[Cb cap Ci fib]
+18.3 +9.8 58 +18 +20 1002.4 926.5
09 17.06 СЗ 3 50 км {гроза, ливн. осадки} 10/5 600 м
[Cb cap Ac trans Ci fib]
+18.1 +8.0 52 +18 +20 1002.4 926.4
12 17.06 З 1 50 км в посл. час ливневой дождь {гроза} 10/8 600 м
[Cb cap Ci fib]
+15.5 +10.3 71 +16 +16 1003.6 926.9 +19.5 4
15 17.06 З 2 50 км 9/9 1000 м
[Sc]
+12.9 +10.6 86 +12 +12 1004.7 927.3
18 17.06 З 2 50 км 9/9 1000 м
[Sc]
+12.3 +9.9 85 +11 +11 1004.6 927.0
21 17.06 СЗ 1 50 км {ливн. осадки} 8/8 1000 м
[Sc]
+12.2 +10.1 87 +12 +12 1005.1 927.4
00 18.06 С 3 50 км {ливн. осадки} 9/4 1000 м
[Cu Sc Ac trans]
+14.8 +10.2 74 +14 +16 1005.1 928.1 +11.8 0.6
03 18.06 С 3 50 км 10/6 1000 м
[Cu med, cong Ci fib]
+17.5 +9.8 61 +18 +22 1004.4 928.2
06 18.06 В 5 50 км 10/4 1000 м
[Cu med, cong Ci fib]
+20.7 +9.0 47 +22 +26 комфорт 1002.3 927.0
09 18.06 С 2 50 км 10/3 1000 м
[Cu med, cong Ci fib]
+22.6 +5.7 33 +23 +26 комфорт 1001.5 926.6
12 18.06 С 2 50 км 10/3 1000 м
[Sc diur, vesp Ci fib]
+19.7 +9.4 51 +21 +21 комфорт 1003.8 928.1 +23.0
15 18.06 З 2 50 км 1/1 1000 м
[Sc]
+11.9 +10.1 89 +11 +11 1006.8 928.9
18 18.06 ЮЗ 2 50 км 3/3 1000 м
[Sc]
+9.2 +7.7 90 +7 +7 1007.9 929.2
21 18.06 ЮЗ 2 50 км 10/3 1000 м
[Sc Ci fib]
+8.5 +7.8 95 +6 +7 1009.0 930.0
00 19.06 ЮЗ 1 50 км 10/3 1000 м
[Sc Ac trans Ci fib]
+14.8 +10.7 76 +15 +18 1008.1 930.9 +8.2
03 19.06 СВ 4 50 км 10/3 1000 м
[Cu med, cong Ac lent Cs]
+21.2 +9.5 47 +23 +26 комфорт 1006.5 931.0
06 19.06 С 3 50 км 10/3 1000 м
[Cu med, cong Cs]
+24.2 +7.2 34 +24 +32 комфорт 1003.9 929.3
09 19.06 СВ 5
{11}
50 км 10/5 600 м
[Cb cap Cs]
+24.0 +4.0 27 +24 +25 комфорт 1004.5 929.7
12 19.06 С 3
{12}
50 км 10/3 600 м
[Cb cap Ci fib]
+20.6 +9.1 48 +22 +23 комфорт 1007.0 931.3 +25.2
15 19.06 З 2 50 км 1/1 1000 м
[Sc]
+13.2 +9.9 80 +12 +12 1010.1 932.3
18 19.06 ЮЗ 1 50 км ясно +8.3 +7.0 92 +7 +7 1011.8 932.5
21 19.06 З 1 50 км 3/3 1000 м
[Sc]
+8.5 +7.1 91 +8 +8 1012.9 933.6
00 20.06 ЮЗ 2 50 км 3/1 1000 м
[Sc Ac trans Ci fib]
+17.2 +10.2 63 +18 +23 1010.9 934.1 +7.1
03 20.06 В 3 50 км 3/3 1000 м
[Cu med, cong]
+25.8 +6.6 29 +25 +35 комфорт 1007.8 933.2
06 20.06 СВ 5
{10}
50 км 8/3 600 м
[Cb cap Ci fib]
+27.3 +3.6 22 +26 +31 жарко 1006.1 932.0
09 20.06 В 6-10
{12}
50 км 4/3 600 м
[Cb cap Ci fib]
+26.6 +3.6 23 +25 +27 комфорт 1005.9 931.6
12 20.06 ЮЗ 2
{12}
50 км {гроза, ливн. осадки} 4/1 600 м
[Cb cap Ci ing]
+19.4 +8.1 48 +21 +21 комфорт 1008.8 932.6 +27.9 0.0
15 20.06 З 2 50 км 10/0
[Ac lent Ci fib]
+13.4 +10.0 80 +13 +13 1011.7 933.8
18 20.06 З 1 50 км 1/0
[Ac lent]
+9.1 +7.3 88 +8 +8 1013.4 934.2
21 20.06 ЮЗ 2 50 км 1/1 1000 м
[Sc]
+7.8 +6.2 90 +6 +6 1014.7 935.0
00 21.06 Ю 1 50 км 1/1 1000 м
[Cu hum]
+18.2 +9.5 57 +20 +27 1011.9 935.3 +7.3
03 21.06 В 4 50 км 1/1 1000 м
[Cu med, cong]
+25.1 +5.5 28 +25 +34 комфорт 1009.8 934.9
06 21.06 В 5 50 км 1/1 1000 м
[Cu med, cong]
+27.6 +2.6 20 +26 +33 жарко 1007.7 933.5
09 21.06 СВ 2 50 км 3/1 1000 м
[Cu hum Ci fib]
+28.3 +1.3 17 +26 +31 жарко 1006.5 932.5
12 21.06 В 2 50 км 5/0
[Ci fib]
+25.2 +1.8 22 +24 +24 комфорт 1007.5 932.7 +28.5
15 21.06 З 3 50 км 1/0
[Ci fib]
+13.1 +5.3 59 +12 +12 1011.9 933.8
18 21.06 З 1 50 км 1/0
[Ac lent]
+8.9 +4.2 72 +8 +8 1013.5 934.2
21 21.06 ЮЗ 1 50 км 9/3 1000 м
[Sc Ac trans]
+7.8 +4.3 79 +7 +7 1014.5 934.8
00 22.06 ЮЗ 1 50 км 3/0
[Cc]
+17.5 +5.8 46 +19 +26 1012.0 935.0 +6.6
03 22.06 ЮЗ 2 50 км 3/1 1000 м
[Cu hum Ac trans]
+28.9 +0.8 16 +26 +39 жарко 1007.9 934.0
06 22.06 В 2 50 км 4/3 1000 м
[Cu med, cong Ac trans]
+31.1 +1.6 15 +28 +38 жарко 1005.7 932.5
09 22.06 ЮЗ 2 50 км 4/4 1000 м
[Sc diur, vesp]
+31.9 +1.7 15 +29 +33 жарко 1004.2 931.2
12 22.06 Ю 1 50 км 6/3 1000 м
[Sc diur, vesp Ac trans]
+29.1 +3.1 19 +27 +27 жарко 1005.1 931.4 +32.0
15 22.06 З 2 50 км 1/1 1000 м
[Sc]
+16.2 +8.0 58 +16 +16 1009.8 932.7
18 22.06 З 1 50 км ясно +12.1 +6.8 70 +12 +12 1010.9 932.7
21 22.06 ЮЗ 1 50 км 1/0
[Ci fib]
+9.5 +6.6 82 +9 +9 1012.0 933.0
00 23.06 Ю 1 50 км 3/0
[Ci fib]
+19.8 +8.1 47 +22 +29 комфорт 1009.4 933.3 +8.4
03 23.06 В 2 50 км 1/1 1000 м
[Cu hum]
+30.8 +3.1 17 +28 +43 жарко 1005.4 932.1
06 23.06 ЮВ 3 50 км 3/3 1000 м
[Cu med, cong]
+32.7 +4.9 17 +30 +39 жарко 1003.0 930.4
09 23.06 В 2 50 км 3/3 1000 м
[Cu med, cong Ci fib]
+33.4 +4.2 16 +31 +35 жарко 1001.6 929.2
12 23.06 СВ 1 50 км в посл. час гроза 10/3 600 м
[Cb cap Ci ing]
+28.9 +8.2 27 +28 +28 жарко 1003.1 929.6 +34.3

 

Местоположение метеостанции Агинское (Забайкальский край, Россия): широта 51.10 долгота 114.50 высота над уровнем моря 681 м.

В архиве по умолчанию представлена погода в Агинском за последнюю неделю. Архивные данные за месяц целиком и за предыдущие месяцы, начиная с января 2011 года, Вы можете получить, выбрав интересующий диапазон дат из раскрывающегося списка и нажав кнопку "Ввод!".

Внимание! Время в таблицах - всемирное. Для получения местного времени необходимо прибавить поправку, которая в Агинском равна 9 ч.

Смотрите также архив погоды в соседних городах и на ближайших метеорологических станциях:

Погода в Курорт-Дарасуне (Забайкальский край, Россия) (57 км)
Погода в Карымской (Забайкальский край, Россия) (61 км)
Погода в Оловянной (Забайкальский край, Россия) (72 км)
Погода в Дульдурге (Забайкальский край, Россия) (84 км)
Погода в Акше (Забайкальский край, Россия) (130 км)
Погода в Чите (Забайкальский край, Россия) (133 км)
Погода в Шилке (Забайкальский край, Россия) (135 км)
Погода в Улетах (Забайкальский край, Россия) (149 км)
Погода в Бургене (Забайкальский край, Россия) (158 км)
Погода в Соловьевске (Забайкальский край, Россия) (158 км)

Пояснения к столбцам:

Ветер - указаны скорость ветра в м/с - средняя за 10 мин, порывы в срок и между сроками (в фигурных скобках) и направление, откуда дует ветер: С - северный, СВ - северо-восточный, В - восточный, ЮВ - юго-восточный, Ю - южный, ЮЗ - юго-западный, З - западный, СЗ - северо-западный.
Видимость - горизонтальная дальность видимости в метрах или километрах. При видимости от 1 до 10 км при отсутствии осадков обычно наблюдается дымка, при ухудшении видимости до 1 км и менее - туман. В сухую погоду видимость может ухудшаться дымом, пылью или мглою.
Явления - указаны атмосферные явления, наблюдавшиеся в срок или в последний час перед сроком; фигурными скобками обозначены явления, наблюдавшиеся между сроками (за 1-3 часа до срока); квадратными скобками обозначены град или гололедные отложения с указанием их диаметра в мм.
Облачность - указаны через наклонную черту общая и нижняя облачность в баллах и высота нижней границы облаков в метрах; квадратными скобками обозначены формы облаков: Ci - перистые, Cs - перисто-слоистые, Cc - перисто-кучевые, Ac - высококучевые, As - высокослоистые, Sc - слоисто-кучевые, Ns - слоисто-дождевые, Cu - кучевые, Cb - кучево-дождевые. Подробнее классификацию облаков см. в Атласе облаков (PDF).
T - Температура воздуха - температура, измеренная на высоте 2 м над землей.
Td - Температура точки росы - температура, при понижении до которой содержащийся в воздухе водяной пар достигнет насыщения.
f - Относительная влажность воздуха - влажноcть воздуха, измеренная на высоте 2 м над землей.
Te - Эффективная температура - температура, которую ощущает одетый по сезону человек в тени. Характеристика душности погоды. При расчете учитывается влияние влажности воздуха и скорости ветра на теплоощущения человека.
Tes - Эффективная температура на солнце - температура, которую ощущает человек, с поправкой на солнечный нагрев. Характеристика знойности погоды. Зависит от высоты солнца над горизонтом, облачности и скорости ветра. Ночью, в пасмурную погоду, а также при ветре 12 м/с и более поправка равна нулю.
P - Атмосферное давление - приведенное к уровню моря атмосферное давление.
Po - Атмосферное давление - измеренное на уровне метеостанции атмосферное давление.
Tmin - Минимальная температура - минимум температуры воздуха на высоте 2 м над землей.
Tmax - Максимальная температура - максимум температуры воздуха на высоте 2 м над землей.
R - Количество осадков - Количество выпавших осадков за период времени, мм. При наведении курсора мыши на число - период времени, за который выпало указанное количество осадков.
R24 - Количество осадков - Количество выпавших осадков за 24 часа, мм.
S - Снежный покров - Высота снежного покрова, см. При наведении курсора мыши на число - состояние снежного покрова и степень покрытия местности в баллах.